Location: Chakepay
(13.3931°S, 72.1925°W)
Time: 21:48:06
(UTC+00:00)

Palapa B4 Rocket - Pass Details

Date: 15 November 2019
Orbit: 502 x 2696 km, 19.7° (Epoch: 10 December)

Event Time Altitude Azimuth Distance (km) Brightness Sun altitude
Exits shadow 09:15:58 12° 259° (W) 2,459 5.6 -13.4°
Maximum altitude 09:21:24 67° 341° (NNW) 739 3.3 -12.2°
Drops below altitude 10° 09:25:29 10° 63° (ENE) 1,842 6.1 -11.3°
Sets 09:27:27 0° 66° (ENE) 2,642 7.0 -10.9°
